TimeEDT,TemperatureF,Dew PointF,Humidity,Sea Level PressureIn,VisibilityMPH,Wind Direction,Wind SpeedMPH,Gust SpeedMPH,PrecipitationIn,Events,Conditions,WindDirDegrees,DateUTC
12:53 AM,44.1,27.0,51,29.87,10.0,NW,6.9,-,N/A,,Clear,320,2014-04-24 04:53:00
1:53 AM,43.0,26.1,51,29.87,10.0,NW,5.8,-,N/A,,Clear,310,2014-04-24 05:53:00
2:53 AM,43.0,24.1,47,29.87,10.0,NW,8.1,-,N/A,,Clear,310,2014-04-24 06:53:00
3:53 AM,41.0,24.1,51,29.88,10.0,Variable,5.8,-,N/A,,Clear,0,2014-04-24 07:53:00
4:53 AM,42.1,19.9,41,29.88,10.0,NW,10.4,-,N/A,,Clear,320,2014-04-24 08:53:00
5:53 AM,41.0,18.0,40,29.91,10.0,WNW,8.1,-,N/A,,Clear,300,2014-04-24 09:53:00
6:53 AM,41.0,17.1,38,29.94,10.0,NW,9.2,21.9,N/A,,Clear,310,2014-04-24 10:53:00
7:53 AM,44.1,17.1,34,29.96,10.0,NW,16.1,24.2,N/A,,Clear,320,2014-04-24 11:53:00
8:53 AM,46.0,16.0,30,29.96,10.0,WNW,18.4,27.6,N/A,,Clear,300,2014-04-24 12:53:00
9:53 AM,48.9,14.0,25,29.96,10.0,NW,20.7,29.9,N/A,,Clear,310,2014-04-24 13:53:00
10:53 AM,51.1,14.0,23,29.97,10.0,NW,11.5,28.8,N/A,,Clear,320,2014-04-24 14:53:00
11:53 AM,54.0,14.0,21,29.96,10.0,WNW,17.3,26.5,N/A,,Clear,300,2014-04-24 15:53:00
12:53 PM,57.0,12.9,18,29.94,10.0,WNW,16.1,32.2,N/A,,Clear,300,2014-04-24 16:53:00
1:53 PM,60.1,15.1,17,29.92,10.0,WNW,15.0,24.2,N/A,,Clear,300,2014-04-24 17:53:00
2:53 PM,60.1,14.0,16,29.91,10.0,WNW,21.9,28.8,N/A,,Clear,300,2014-04-24 18:53:00
3:53 PM,61.0,14.0,16,29.91,10.0,WNW,17.3,25.3,N/A,,Clear,300,2014-04-24 19:53:00
4:53 PM,60.1,12.0,15,29.90,10.0,NW,20.7,29.9,N/A,,Clear,310,2014-04-24 20:53:00
5:53 PM,60.1,10.9,14,29.92,10.0,NW,15.0,23.0,N/A,,Clear,310,2014-04-24 21:53:00
6:53 PM,59.0,10.0,14,29.94,10.0,NW,13.8,21.9,N/A,,Clear,320,2014-04-24 22:53:00
7:53 PM,55.9,10.9,17,29.95,10.0,NW,13.8,-,N/A,,Clear,310,2014-04-24 23:53:00
8:53 PM,52.0,12.9,21,29.99,10.0,NW,8.1,-,N/A,,Clear,310,2014-04-25 00:53:00
9:53 PM,46.9,19.0,33,30.01,10.0,NNW,4.6,-,N/A,,Clear,330,2014-04-25 01:53:00
10:53 PM,45.0,19.0,36,30.02,10.0,NNW,4.6,-,N/A,,Clear,340,2014-04-25 02:53:00
11:53 PM,46.0,19.0,34,30.02,10.0,NNW,6.9,-,N/A,,Clear,330,2014-04-25 03:53:00